Weather History for North Las Vegas, NV

Change the Weather History Date:

Wednesday, June 19, 2013

  Actual Average Record
Temperature  
Mean Temperature 84 °F -  
Max Temperature 95 °F 99 °F 119 °F (1961)
Min Temperature 75 °F 71 °F 50 °F (1953)
Cooling Degree Days 19    
Growing Degree Days 34 (Base 50)    
Moisture  
Dew Point 22 °F    
Average Humidity 11    
Maximum Humidity 22    
Minimum Humidity 5    
Precipitation  
Precipitation 0.00 in - - ()
Sea Level Pressure  
Sea Level Pressure 29.66 in    
Wind  
Wind Speed 14 mph (SW)    
Max Wind Speed 26 mph    
Max Gust Speed 33 mph    
Visibility 10 miles    
Events      
Averages and records for this station are not official NWS values.
T = Trace of Precipitation, MM = Missing Value Source: NWS Daily Summary

Daily Weather History Graph

Daily Weather History Graph

Search for Another Location

Airport:

Trip Planner

Search our weather history database for the weather conditions in past years. The results will help you decide how hot, cold, wet, or windy it might be!

Date:

Astronomy

Jun. 19, 2013 Rise Set
Actual Time 5:23 AM PDT 8:01 PM PDT
Civil Twilight 4:53 AM PDT 8:31 PM PDT
Nautical Twilight 4:15 AM PDT 9:09 PM PDT
Astronomical Twilight 3:33 AM PDT 9:51 PM PDT
Moon 4:03 PM PDT (6/19) 2:05 AM PDT (6/19)
Length of Visible Light 15h 38m
Length of Day
14h 37m
Waxing Gibbous, 81% of the Moon is Illuminated
Jun 19
Waxing Gibbous
Jun 23
Full
Jun 29
Last Quarter
Jul 8
New
Jul 15
First Quarter

Hourly Weather History & Observations

Time (PDT) Temp. Dew Point Humidity Pressure Visibility Wind Dir Wind Speed Gust Speed Precip Events Conditions
12:53 AM 82.0 °F 28.9 °F 14% 29.64 in 10.0 mi SSW 11.5 mph - N/A   Clear
1:53 AM 80.1 °F 34.0 °F 19% 29.62 in 10.0 mi SSW 16.1 mph 25.3 mph N/A   Clear
2:53 AM 79.0 °F 36.0 °F 21% 29.60 in 10.0 mi SSW 23.0 mph 29.9 mph N/A   Clear
3:53 AM 78.1 °F 35.1 °F 21% 29.58 in 10.0 mi SW 25.3 mph 33.4 mph N/A   Clear
4:53 AM 75.9 °F 34.0 °F 22% 29.59 in 10.0 mi SSW 20.7 mph - N/A   Clear
5:53 AM 77.0 °F 30.0 °F 18% 29.61 in 10.0 mi SSW 18.4 mph - N/A   Clear
6:53 AM 78.1 °F 28.9 °F 17% 29.65 in 10.0 mi WNW 9.2 mph - N/A   Clear
7:53 AM 80.1 °F 32.0 °F 17% 29.69 in 10.0 mi Variable 3.5 mph - N/A   Clear
8:53 AM 84.0 °F 24.1 °F 11% 29.70 in 10.0 mi NW 26.5 mph 32.2 mph N/A   Clear
9:53 AM 87.1 °F 19.9 °F 8% 29.71 in 10.0 mi North 18.4 mph 31.1 mph N/A   Clear
10:53 AM 89.1 °F 15.1 °F 6% 29.72 in 10.0 mi North 13.8 mph 23.0 mph N/A   Clear
11:53 AM 91.0 °F 12.9 °F 6% 29.73 in 10.0 mi North 9.2 mph - N/A   Clear
12:53 PM 91.9 °F 12.9 °F 5% 29.72 in 10.0 mi Variable 4.6 mph - N/A   Clear
1:53 PM 93.9 °F 12.0 °F 5% 29.70 in 10.0 mi Variable 6.9 mph - N/A   Clear
2:53 PM 93.0 °F 18.0 °F 6% 29.69 in 10.0 mi SSE 12.7 mph 16.1 mph N/A   Clear
3:53 PM 93.0 °F 17.1 °F 6% 29.67 in 10.0 mi SW 3.5 mph - N/A   Clear
4:53 PM 93.9 °F 19.9 °F 7% 29.65 in 10.0 mi SE 3.5 mph - N/A   Clear
5:53 PM 93.9 °F 17.1 °F 6% 29.63 in 10.0 mi South 6.9 mph - N/A   Clear
6:53 PM 93.9 °F 10.9 °F 5% 29.63 in 10.0 mi South 13.8 mph 18.4 mph N/A   Clear
7:53 PM 91.9 °F 17.1 °F 6% 29.62 in 10.0 mi SW 12.7 mph - N/A   Clear
8:53 PM 90.0 °F 21.0 °F 8% 29.64 in 10.0 mi SW 10.4 mph - N/A   Clear
9:53 PM 87.1 °F 18.0 °F 8% 29.65 in 10.0 mi SSW 6.9 mph - N/A   Clear
10:53 PM 86.0 °F 19.9 °F 9% 29.65 in 10.0 mi SW 11.5 mph - N/A   Clear
11:53 PM 82.9 °F 12.0 °F 7% 29.65 in 10.0 mi SW 8.1 mph - N/A   Clear